{"data":{"norad_id":64272,"intl_designator":"2025-120S","name":"STARLINK-34001","alt_names":[],"object_type":"PAYLOAD","status":"ACTIVE","operator":null,"country":"US","launch_date":"2025-06-04","launch_site_code":"AFWTR","launch_vehicle":null,"mission":null,"orbit_class":"UNKNOWN","rcs_meters":null,"size_class":null,"mass_kg":null,"dimensions":null,"purposes":["comms"],"wikipedia_slug":null,"has_3d_model":false,"image_url":null,"decayed_at":null,"tle_current":{"epoch":"2026-09-20T08:40:02.893440Z","epoch_age_seconds":149656,"freshness":"FRESH","line1":"1 64272U 25120S   26263.36114460  .00014328  00000+0  43445-3 0  9995","line2":"2 64272  53.1592 290.1672 0001160  78.2421 281.8712 15.34394964 73655","mean_motion":15.34394964,"eccentricity":0.000116,"inclination_deg":53.1592,"raan_deg":290.1672,"arg_perigee_deg":78.2421,"mean_anomaly_deg":281.8712,"bstar":0.00043445,"rev_number":7365,"period_min":93.848066096755,"perigee_km":461.92466909717,"apogee_km":463.5117475055,"semimajor_km":6840.8552083013,"source":"CELESTRAK","updated_at":"2026-09-21T09:00:35.284933Z"}}}